Temp
9 9 10 9 10 10 10 10 11 11 11 11 11 9 8 7 7 7 10 11 11 10 10 10 11 11 12 12 13 13 10 9 12 12 14 14 14 14 14 13 12 13 13 13 11
9 9 9 9 10 10 10 10 10 10 11 11 10 10 8 7 7 8 11 11 10 10 10 10 11 11 12 12 13 11 9 10 11 12 13 14 14 14 13 12 12 12 13 12 11
8 8 8 8 9 9 10 9 10 10 10 10 10 9 8 8 8 11 11 11 10 10 10 10 10 11 11 12 12 10 9 10 13 13 13 13 13 13 12 12 13 12 12 11 11
8 8 8 8 8 8 9 9 9 9 9 10 9 9 7 8 9 11 11 11 10 10 10 10 10 11 10 10 12 11 11 12 13 13 13 13 13 13 13 14 14 15 15 13 11
7 7 7 8 8 8 8 9 9 9 9 9 8 8 7 7 9 11 11 10 10 10 10 10 10 10 10 9 11 10 12 12 13 13 13 13 12 12 12 13 15 13 13 13 12
6 6 7 7 7 7 8 8 8 8 9 8 8 7 7 6 11 11 10 10 10 10 10 10 11 11 11 10 10 11 11 12 12 12 12 12 12 12 13 13 13 12 12 12 12
3 4 5 6 7 7 7 7 8 7 8 8 7 7 6 8 10 10 10 10 10 10 10 10 11 11 11 11 11 11 10 10 10 10 11 11 10 8 13 12 12 11 12 11 11
3 4 4 5 6 6 6 7 7 7 7 7 7 6 6 10 10 10 10 9 10 10 10 10 11 11 11 11 10 10 9 9 10 8 10 11 8 10 11 11 11 10 10 11 11
4 4 4 5 5 5 6 6 6 7 7 7 6 6 6 9 9 10 9 10 9 9 10 10 11 11 10 8 8 7 7 7 9 8 8 8 9 9 10 10 10 10 10 10 10
4 4 4 5 5 5 5 5 6 6 6 6 6 5 8 9 10 9 9 9 9 9 9 10 10 8 7 7 7 7 7 7 7 8 7 7 6 7 9 8 9 10 9 9 10
4 4 4 4 5 5 4 5 6 5 4 7 7 7 9 8 9 8 9 9 9 9 6 8 6 8 9 7 9 8 8 8 7 8 8 6 7 7 8 7 7 7 8 9 10
3 4 4 4 4 4 3 3 5 5 5 6 7 6 8 8 8 8 9 9 8 6 5 5 5 8 8 8 8 8 8 8 9 8 8 7 6 7 6 6 8 8 8 9 10
3 3 3 3 3 3 3 4 5 5 4 6 7 7 7 8 8 8 8 9 6 5 4 5 7 8 8 7 8 8 8 8 10 8 8 7 7 7 7 7 9 9 11 10 10
3 3 3 2 2 3 3 5 4 3 4 4 5 6 7 8 6 9 9 9 6 6 5 5 7 7 7 7 7 7 7 9 8 8 7 7 7 7 6 5 5 7 8 9 10
2 2 2 2 1 2 3 4 3 3 4 6 6 8 8 8 8 8 9 9 6 5 5 6 6 6 6 7 8 7 7 7 7 5 6 6 5 7 6 6 5 3 7 9 10
2 2 2 1 1 1 2 2 3 3 2 6 6 5 5 7 7 6 7 9 8 6 6 7 7 7 7 6 8 5 5 4 3 3 2 5 6 8 6 6 7 4 6 8 9
1 1 1 1 1 1 1 1 3 2 6 6 5 5 5 5 5 6 6 6 6 5 4 7 7 7 7 5 6 6 6 1 3 1 4 4 5 8 8 6 6 5 5 7 9
1 1 1 1 1 1 1 0 3 4 4 6 5 5 5 5 5 5 5 5 5 5 3 4 4 5 6 6 5 5 6 4 6 2 6 4 5 8 6 6 7 7 7 7 8
1 1 1 1 1 0 0 1 2 3 6 5 5 4 4 6 5 6 4 6 7 4 6 3 6 5 6 5 7 5 5 5 2 3 1 4 4 6 5 6 4 4 6 6 7
0 -0 -0 2 1 0 0 1 2 4 4 5 5 4 3 4 4 4 4 5 6 6 5 5 3 5 5 6 5 5 4 5 -1 3 6 6 5 8 6 5 3 2 3 5 6
0 -0 1 1 0 0 1 1 2 3 4 4 4 3 4 4 3 4 3 5 7 6 6 4 3 4 5 5 4 4 4 2 2 0 4 4 8 5 6 4 3 2 4 6 6
-0 -0 1 1 1 0 1 1 2 4 4 4 4 4 4 3 2 2 4 5 6 7 6 4 2 1 3 3 4 4 2 1 2 1 -5 -1 7 5 4 4 3 3 5 6 8
-1 -1 0 1 1 0 -1 2 3 2 3 3 4 6 4 4 3 4 4 6 5 5 6 3 2 0 3 3 2 3 1 -3 -5 -3 -1 4 8 5 4 3 4 4 5 7 7
-1 -4 -1 -1 -1 0 -0 1 2 2 2 3 4 5 5 4 4 4 4 5 5 4 6 6 1 2 6 1 -1 -0 -3 1 2 0 2 2 6 7 5 3 2 4 6 7 7
-1 -1 -1 -1 -2 0 -0 -1 1 1 3 2 3 4 4 3 4 4 4 3 2 4 6 3 3 2 3 2 1 -1 -1 -1 2 3 6 8 5 7 5 3 2 5 6 6 7
-2 -2 -1 -0 -0 -0 0 -1 1 2 2 2 2 3 3 2 4 4 3 2 3 1 2 1 4 4 3 2 3 4 2 1 4 3 3 5 4 4 4 5 4 5 6 6 7
-1 -1 -1 -0 0 -1 -1 1 1 2 3 4 3 4 3 4 4 3 3 1 1 2 1 2 2 4 4 4 4 5 3 1 3 4 6 4 6 3 3 3 4 5 6 7 8
Height
1483 1480 1478 1477 1475 1473 1471 1468 1466 1463 1460 1457 1455 1453 1451 1450 1450 1448 1445 1448 1450 1453 1455 1458 1461 1462 1464 1465 1466 1468 1477 1482 1473 1475 1466 1464 1464 1466 1467 1469 1474 1475 1475 1477 1482
1481 1479 1476 1474 1472 1470 1468 1466 1464 1462 1459 1457 1454 1453 1451 1450 1449 1445 1445 1445 1448 1452 1455 1457 1460 1461 1463 1463 1465 1466 1475 1471 1465 1465 1465 1463 1463 1464 1467 1469 1473 1473 1475 1477 1481
1479 1477 1475 1473 1470 1467 1466 1464 1462 1459 1457 1455 1453 1452 1451 1450 1449 1442 1442 1444 1448 1450 1453 1456 1459 1461 1461 1462 1463 1464 1467 1463 1462 1463 1463 1463 1463 1464 1464 1469 1467 1468 1471 1476 1480
1476 1474 1471 1470 1468 1465 1463 1461 1459 1457 1455 1453 1451 1451 1450 1451 1452 1443 1442 1445 1447 1449 1452 1454 1457 1459 1460 1461 1459 1463 1460 1460 1460 1462 1462 1462 1463 1463 1462 1463 1464 1466 1469 1472 1477
1471 1470 1468 1466 1464 1462 1460 1458 1456 1454 1453 1451 1450 1450 1450 1450 1443 1443 1444 1445 1446 1446 1448 1452 1454 1457 1458 1458 1460 1460 1459 1459 1459 1460 1461 1462 1462 1462 1460 1462 1463 1465 1468 1471 1475
1466 1464 1463 1461 1460 1459 1457 1455 1453 1451 1450 1448 1448 1448 1449 1448 1440 1441 1442 1443 1444 1445 1446 1449 1452 1455 1455 1457 1458 1456 1457 1458 1458 1458 1459 1461 1461 1462 1458 1460 1461 1463 1466 1470 1473
1462 1459 1458 1456 1455 1454 1453 1452 1450 1449 1447 1445 1445 1445 1445 1438 1437 1438 1440 1442 1443 1445 1445 1447 1450 1453 1453 1454 1455 1456 1459 1458 1457 1458 1459 1460 1462 1458 1456 1458 1459 1462 1465 1469 1473
1457 1455 1452 1451 1450 1449 1448 1448 1446 1445 1444 1442 1442 1442 1437 1433 1433 1434 1437 1439 1441 1443 1445 1446 1449 1452 1453 1454 1455 1458 1460 1465 1454 1455 1457 1460 1460 1450 1451 1453 1455 1459 1463 1466 1470
1453 1451 1449 1447 1446 1444 1444 1443 1442 1441 1440 1439 1441 1440 1434 1428 1428 1429 1433 1436 1439 1442 1444 1445 1447 1450 1453 1458 1462 1463 1466 1467 1457 1453 1455 1458 1456 1449 1449 1450 1452 1455 1458 1462 1468
1448 1446 1444 1442 1441 1440 1439 1438 1437 1436 1435 1437 1439 1442 1429 1423 1423 1425 1429 1433 1437 1440 1443 1444 1446 1448 1453 1456 1462 1462 1465 1463 1459 1453 1455 1457 1454 1448 1448 1448 1447 1451 1455 1459 1464
1441 1439 1438 1437 1436 1435 1435 1435 1436 1433 1430 1426 1424 1422 1421 1422 1423 1424 1425 1431 1435 1438 1442 1441 1446 1440 1440 1448 1449 1453 1457 1456 1454 1451 1454 1455 1451 1446 1444 1446 1447 1448 1451 1456 1460
1435 1433 1431 1431 1431 1430 1429 1429 1429 1429 1422 1420 1420 1421 1420 1422 1421 1422 1424 1428 1433 1437 1439 1445 1442 1439 1443 1447 1449 1452 1454 1454 1451 1451 1455 1453 1450 1441 1440 1439 1438 1441 1446 1451 1457
1428 1426 1425 1424 1425 1422 1423 1422 1425 1425 1420 1410 1412 1412 1413 1418 1415 1415 1419 1422 1429 1435 1437 1440 1434 1433 1440 1447 1449 1451 1453 1453 1450 1453 1455 1454 1446 1436 1429 1431 1432 1435 1440 1445 1449
1421 1420 1419 1419 1418 1415 1414 1416 1420 1422 1417 1403 1401 1397 1404 1408 1409 1410 1411 1417 1426 1430 1435 1437 1431 1432 1438 1442 1445 1450 1447 1448 1451 1455 1460 1457 1455 1431 1429 1428 1428 1428 1432 1438 1445
1414 1413 1412 1412 1410 1406 1410 1411 1414 1421 1407 1386 1387 1387 1388 1395 1396 1398 1405 1412 1417 1420 1427 1425 1426 1429 1434 1432 1437 1442 1443 1450 1455 1464 1461 1459 1467 1430 1429 1426 1422 1422 1425 1430 1438
1406 1405 1405 1404 1404 1403 1406 1409 1410 1417 1404 1382 1380 1385 1390 1391 1393 1397 1402 1410 1413 1419 1419 1419 1419 1421 1424 1429 1432 1442 1448 1458 1467 1471 1489 1455 1453 1427 1425 1417 1411 1414 1417 1422 1431
1399 1398 1398 1398 1394 1397 1396 1401 1396 1393 1382 1379 1380 1381 1385 1389 1394 1395 1401 1405 1409 1422 1425 1420 1420 1418 1420 1432 1436 1438 1447 1490 1488 1495 1472 1457 1457 1417 1409 1410 1409 1408 1410 1416 1425
1393 1392 1389 1390 1391 1392 1392 1397 1380 1374 1376 1369 1371 1378 1383 1386 1391 1393 1397 1403 1404 1406 1419 1423 1432 1418 1417 1424 1433 1438 1437 1459 1455 1479 1451 1459 1448 1410 1406 1405 1407 1406 1409 1414 1421
1387 1385 1382 1383 1386 1388 1388 1385 1375 1375 1369 1372 1371 1378 1381 1380 1386 1390 1396 1394 1394 1400 1408 1423 1415 1413 1415 1416 1420 1435 1439 1440 1460 1464 1474 1448 1432 1407 1405 1406 1407 1407 1409 1413 1418
1383 1380 1377 1378 1380 1383 1382 1378 1375 1375 1372 1368 1369 1372 1380 1380 1386 1390 1395 1390 1390 1393 1395 1405 1426 1415 1417 1417 1422 1422 1430 1444 1471 1466 1448 1434 1433 1409 1404 1405 1408 1408 1408 1412 1417
1381 1378 1375 1375 1377 1379 1375 1379 1375 1372 1373 1372 1367 1374 1374 1379 1385 1389 1392 1387 1384 1387 1393 1401 1412 1422 1418 1417 1420 1427 1429 1440 1445 1460 1446 1447 1411 1401 1397 1398 1403 1404 1406 1410 1415
1379 1378 1375 1376 1376 1374 1373 1374 1372 1369 1371 1368 1365 1369 1372 1377 1385 1388 1385 1385 1384 1384 1390 1399 1412 1425 1418 1417 1416 1416 1425 1431 1444 1456 1480 1462 1414 1397 1398 1396 1400 1404 1406 1411 1417
1377 1376 1374 1374 1370 1370 1372 1370 1369 1371 1364 1365 1362 1361 1366 1373 1381 1379 1380 1375 1380 1386 1386 1396 1410 1428 1419 1420 1420 1416 1423 1434 1446 1451 1457 1435 1406 1398 1398 1398 1401 1405 1408 1413 1419
1377 1379 1372 1370 1369 1369 1371 1367 1366 1364 1367 1368 1364 1362 1365 1370 1371 1375 1375 1374 1377 1382 1385 1387 1400 1402 1388 1407 1410 1422 1429 1421 1422 1443 1436 1430 1406 1397 1398 1401 1402 1405 1409 1414 1419
1377 1375 1371 1370 1367 1365 1368 1368 1366 1366 1364 1363 1363 1361 1363 1371 1370 1370 1372 1373 1375 1376 1377 1387 1389 1397 1393 1396 1400 1407 1412 1417 1414 1415 1411 1401 1408 1394 1395 1397 1399 1403 1409 1414 1418
1375 1374 1370 1368 1365 1364 1364 1362 1361 1362 1362 1361 1364 1365 1361 1366 1362 1365 1369 1375 1369 1374 1377 1384 1383 1386 1395 1397 1395 1394 1402 1407 1403 1408 1411 1407 1408 1394 1393 1396 1400 1402 1406 1411 1416
1373 1372 1372 1366 1363 1364 1363 1359 1358 1359 1357 1357 1360 1361 1362 1360 1361 1362 1364 1368 1371 1370 1374 1379 1386 1381 1390 1394 1391 1390 1388 1397 1394 1393 1391 1404 1389 1392 1394 1394 1395 1398 1403 1407 1413
Wind_Speed
18 18 18 18 18 17 16 16 16 17 17 17 18 12 9 7 7 11 13 8 14 6 13 11 11 12 11 10 7 6 2 3 4 6 4 3 3 4 5 13 6 7 9 6 33
19 20 19 19 19 19 18 17 16 16 16 17 14 13 9 6 10 18 4 13 14 9 11 12 11 11 7 8 7 4 4 8 5 3 3 3 3 9 6 7 4 7 10 20 33
22 20 20 20 20 20 19 19 17 16 15 15 13 11 8 8 13 6 9 15 14 13 10 10 9 12 6 6 8 6 5 5 4 4 4 4 4 4 8 4 9 16 22 33 35
20 22 22 22 21 20 20 20 19 17 15 14 12 9 7 6 4 4 8 13 12 13 13 11 10 7 5 5 7 2 6 5 4 5 3 4 5 3 10 2 4 12 21 35 36
22 22 21 23 22 22 21 19 20 18 15 13 11 7 6 6 12 6 7 12 13 13 16 13 11 6 5 5 4 4 3 10 7 5 3 4 3 4 9 6 5 16 32 36 36
27 25 24 23 22 24 21 21 20 17 16 13 10 7 8 6 7 7 11 13 13 13 15 16 7 11 5 3 6 4 7 3 6 6 3 4 3 3 7 12 10 23 35 38 36
25 24 24 24 24 23 23 20 20 17 15 14 10 9 12 22 7 8 11 12 12 12 14 14 12 9 3 1 5 4 3 2 4 6 3 3 7 8 16 13 19 26 36 38 37
27 26 25 26 24 24 22 22 21 19 18 16 10 10 11 11 14 17 13 14 14 13 11 13 13 7 3 5 4 3 3 2 3 7 2 7 7 4 15 18 22 28 35 39 38
26 25 21 25 28 25 24 22 23 20 20 14 9 9 10 11 19 17 19 15 12 12 9 11 12 5 5 5 2 3 4 5 6 8 4 6 6 2 4 19 21 29 35 40 38
25 27 25 23 24 27 24 25 21 20 15 7 9 4 17 8 9 17 20 14 13 14 10 9 5 4 2 4 6 6 3 4 6 5 5 6 10 7 3 16 23 26 33 38 39
36 35 29 25 21 22 25 22 17 8 15 15 12 10 6 8 8 16 22 15 12 13 6 5 4 14 16 4 2 4 3 5 4 4 5 8 7 10 7 9 12 21 28 36 38
28 27 34 32 25 23 20 19 18 5 6 20 30 22 19 6 7 15 22 14 8 6 4 3 9 8 4 5 4 3 3 4 2 2 4 1 12 12 8 8 22 26 30 36 35
28 28 29 29 30 27 26 30 26 24 7 13 25 24 30 28 11 20 27 17 5 6 7 6 4 12 9 5 9 4 4 3 1 1 1 5 8 8 5 13 18 29 36 37 38
29 28 28 26 27 27 28 28 25 21 5 6 8 18 29 17 11 22 33 19 4 12 8 6 4 6 8 8 10 10 8 3 3 3 4 1 5 5 4 6 7 21 34 38 38
30 31 29 22 19 18 14 7 14 14 10 6 9 5 13 19 13 20 33 18 9 9 8 9 9 7 5 8 12 6 6 7 3 3 3 1 1 7 1 6 9 11 29 38 42
30 29 24 24 27 27 25 21 11 7 8 3 7 6 6 8 2 7 24 13 8 5 1 5 3 6 7 3 10 10 7 8 5 3 2 6 6 6 5 6 4 5 28 37 39
28 27 23 21 26 20 21 15 8 10 3 4 6 7 5 7 5 5 14 12 9 6 5 2 3 3 5 8 4 3 6 3 2 1 6 1 3 9 5 6 5 8 21 33 37
25 23 23 23 21 17 15 4 10 8 9 0 6 5 7 6 4 6 12 14 8 4 4 8 4 9 5 7 8 6 7 6 8 4 3 2 7 7 4 2 7 3 15 24 31
21 23 24 21 19 20 7 5 4 5 13 6 3 5 3 3 6 5 8 15 14 9 7 5 5 2 2 5 10 6 6 4 6 2 3 4 7 9 5 2 2 6 16 21 26
17 19 22 16 13 14 5 5 4 5 4 4 8 4 8 8 4 5 7 6 10 12 2 6 3 1 2 4 4 5 8 3 3 2 4 4 5 5 5 8 6 6 13 21 24
11 6 7 7 8 9 4 5 5 12 9 7 6 4 5 7 7 7 6 4 12 13 7 4 4 1 4 5 8 3 3 4 4 3 5 2 6 5 6 9 10 9 19 24 27
5 2 3 4 4 2 4 5 3 5 17 5 4 4 6 5 5 6 9 4 6 8 14 4 4 4 5 1 1 3 6 6 5 5 0 2 6 2 5 6 7 11 20 23 27
3 5 7 10 4 5 2 3 6 3 3 1 4 7 4 6 5 7 9 10 13 4 14 6 3 3 3 3 3 5 5 5 5 3 6 5 5 2 3 5 9 17 22 26 29
1 3 4 9 4 1 2 4 4 5 6 3 4 6 3 4 5 6 6 5 7 12 21 14 5 7 10 7 6 5 4 6 6 3 4 6 5 4 4 7 7 17 26 29 30
3 3 3 2 3 4 1 0 5 3 7 1 4 7 6 6 5 4 4 1 3 7 5 10 10 3 1 4 4 5 7 11 12 6 8 4 7 6 9 9 8 21 25 27 28
4 3 3 4 6 5 7 5 10 7 5 3 2 10 7 7 9 8 6 3 3 3 10 5 5 4 2 3 5 4 7 11 13 4 7 2 6 6 3 9 12 21 26 28 29
5 7 4 4 2 1 2 1 4 3 5 7 7 8 5 6 4 5 8 7 1 4 5 8 4 7 4 4 5 4 12 12 10 9 15 12 10 5 4 7 15 24 28 30 28
Wind_Direction
331 330 329 325 323 323 324 328 329 331 333 336 332 328 309 303 290 276 253 223 196 188 195 200 200 187 180 174 167 140 83 227 224 164 244 176 133 146 141 137 159 174 164 183 169
321 323 325 325 320 317 317 319 322 324 328 328 331 322 304 294 287 276 278 184 176 189 199 206 201 182 180 179 180 146 166 210 210 209 230 179 164 151 155 140 146 152 175 167 172
312 312 315 317 319 317 312 313 315 317 319 322 323 317 299 291 306 287 203 177 181 197 202 207 203 186 188 170 186 185 203 199 230 215 206 162 134 169 138 216 192 184 165 172 176
295 301 305 308 310 311 313 309 308 309 312 316 313 309 288 273 277 328 191 184 185 210 207 191 185 179 167 196 192 175 225 177 194 190 156 172 153 197 197 180 220 207 189 177 182
282 287 291 297 300 303 307 308 305 302 302 306 299 293 273 252 255 251 172 198 211 207 197 187 186 175 186 194 160 215 231 209 211 213 187 164 200 224 233 233 209 185 180 183 185
279 278 281 281 287 292 295 302 305 300 297 298 283 271 247 252 251 231 209 211 209 196 184 187 197 200 222 205 180 223 197 208 219 199 191 190 239 200 235 204 178 178 183 187 190
304 284 280 280 276 281 287 289 294 300 299 294 270 253 250 253 238 212 206 210 209 208 197 197 209 194 199 188 216 147 133 358 226 193 211 163 274 224 225 192 178 186 188 190 193
315 309 281 276 276 277 279 283 285 289 295 294 254 239 248 260 236 216 202 211 213 215 218 211 211 219 210 145 40 104 85 179 262 151 205 140 264 277 225 199 193 192 194 194 196
298 305 314 299 279 278 275 280 279 285 293 285 233 223 257 246 232 218 208 201 202 205 201 191 187 177 143 109 42 338 214 215 309 203 143 179 258 214 204 203 205 198 198 198 199
293 289 287 295 306 278 282 270 279 279 281 236 221 252 246 228 222 208 197 201 190 189 170 180 172 151 113 154 206 197 221 227 214 214 187 210 254 250 226 204 210 204 202 201 201
282 283 288 281 286 296 278 282 278 254 212 198 208 218 320 208 197 191 180 173 167 170 170 189 170 207 197 172 133 157 194 214 231 193 155 229 260 251 224 210 216 211 203 202 203
288 287 282 276 276 280 272 256 239 280 264 241 240 241 243 225 205 195 185 167 166 181 128 78 231 211 148 172 201 159 206 234 317 104 178 280 261 255 201 219 209 207 204 201 202
300 293 287 287 277 279 270 257 262 261 256 234 245 241 244 236 229 195 187 183 153 157 177 180 209 173 166 171 200 205 182 214 257 90 193 332 274 242 234 212 210 214 212 206 203
301 294 293 290 285 270 270 272 249 248 274 218 218 240 226 217 228 222 194 173 177 185 155 225 231 148 187 207 177 221 191 177 149 132 232 61 274 283 237 233 210 203 208 211 206
292 287 289 278 267 239 235 267 237 221 246 211 195 219 203 180 150 205 197 189 170 171 146 220 179 157 173 208 175 212 139 141 101 91 355 218 65 270 39 250 232 210 207 211 210
296 288 288 275 270 270 250 249 203 201 241 247 136 155 122 189 127 116 174 190 167 132 349 194 175 158 179 73 162 152 86 53 60 75 322 220 170 271 205 218 220 195 210 210 207
295 293 285 274 268 279 247 239 218 192 170 208 184 162 160 161 136 146 178 184 170 142 172 117 200 148 120 81 32 109 104 32 354 336 221 169 161 255 237 231 230 209 204 206 205
296 293 277 269 263 252 210 208 247 212 199 288 141 126 173 142 182 155 162 196 228 101 131 160 234 167 172 157 168 177 165 158 197 200 210 121 225 249 218 201 246 247 194 188 196
298 291 285 280 261 246 200 219 206 160 226 179 69 109 217 154 130 135 186 204 201 172 167 141 241 55 28 144 155 193 202 147 102 25 50 211 280 287 205 215 187 171 174 182 189
299 294 287 297 259 231 206 241 175 253 286 183 168 163 184 174 131 148 173 220 212 191 143 194 91 359 136 100 38 151 156 95 9 153 252 260 276 247 207 206 193 183 184 183 186
291 287 293 278 192 213 208 206 234 249 280 244 206 135 185 165 144 180 201 289 216 185 142 133 106 256 144 218 164 131 163 56 118 140 177 184 255 221 233 191 190 194 185 182 182
262 252 281 225 208 200 212 194 197 249 215 277 165 145 158 147 140 187 193 227 1 210 190 161 123 156 182 266 8 144 167 146 143 242 198 144 275 7 299 194 169 180 178 178 177
215 263 261 255 234 207 270 231 214 227 269 298 256 214 138 173 156 188 198 216 179 265 180 177 201 101 47 358 8 199 173 118 118 92 207 149 265 7 13 139 180 173 178 175 175
29 334 238 201 257 23 224 236 234 218 256 246 274 256 184 184 229 191 225 199 178 206 217 189 171 175 193 199 136 166 186 176 144 153 166 226 289 249 205 183 181 186 183 182 185
197 253 283 283 266 220 189 34 200 230 216 207 267 222 176 179 205 217 212 208 212 226 228 181 203 136 348 139 135 164 175 171 200 179 190 222 207 235 208 196 190 187 186 188 192
185 248 235 281 287 221 218 223 224 233 174 203 192 304 211 170 189 186 166 199 204 127 181 153 214 144 98 175 178 166 190 201 211 164 269 207 254 225 146 150 168 184 186 192 194
245 255 280 271 253 156 250 250 233 205 226 225 208 214 269 245 62 128 140 144 251 187 148 158 172 175 179 193 186 265 197 186 204 202 201 205 215 161 177 190 188 185 189 194 196